[[{"header":{"parameterUnit":"m.s-1","parameterCategory":1,"la1":30.2991,"la2":30.254,"lo1":-89.0895,"lo2":-89.0444,"dy":0.0017,"dx":0.0017,"nx":28,"ny":28,"refTime":"2024-02-27T09:00:00:Z","depth":0,"parameterNumber":2,"parameterNumberName":"U-component_of_WINDS"},"data":[0,0,0,0,0,0,0,0,0,0,0,0,0,0,0,0,0,0,0,0,0,0,0,0,0,0,0,0,0,0,0,0,0,0,0,0,0,0,0,0,0,0,0,0,0,0,0,0,0,0,0,0,0,0,0,0,0,0,1.8569,1.857,0,1.8637,1.8638,1.8639,1.8615,1.8613,1.8612,1.861,1.868,1.8683,1.8687,0,0,0,0,0,0,0,0,0,0,0,0,0,1.8417,1.842,1.8569,1.857,1.8571,1.8637,1.8638,1.8639,1.8615,1.8613,1.8611,1.861,1.8679,1.8683,1.8687,0,0,0,0,0,0,0,0,0,0,0,0,0,1.8484,1.8421,1.8569,1.8567,1.8567,1.8637,1.8638,1.8639,1.8616,1.8613,1.8611,1.8609,1.8678,1.8683,1.8687,1.8763,0,0,1.8702,1.8704,0,0,0,0,0,0,0,0,1.848,1.849,1.8566,1.8567,1.8568,1.8615,1.861,1.8681,1.8616,1.8597,1.861,1.8608,1.866,1.8667,1.8684,1.8766,1.8769,1.8703,1.8706,1.8708,1.8709,0,0,0,0,0,0,0,1.8476,1.8486,1.8596,1.8567,1.8568,1.8562,1.8569,1.8623,1.8641,1.8599,1.8597,1.8606,1.866,1.868,1.8686,1.877,1.8703,1.8707,1.871,1.8712,1.8917,1.8919,0,0,0,0,0,0,1.8471,1.8483,1.8594,1.8598,1.8518,1.8567,1.8575,1.8602,1.864,1.8644,1.8607,1.8604,1.8672,1.868,1.8688,1.8779,1.8708,1.8712,1.8715,1.8915,1.8918,1.892,0,0,0,0,0,0,1.8468,1.8481,1.8591,1.854,1.8554,1.8572,1.8603,1.8605,1.8624,1.8647,1.8649,1.8624,1.8671,1.8681,1.8744,1.8781,1.8715,1.8719,1.8912,1.8915,1.8919,1.8961,0,0,0,0,0,0,1.8463,1.848,1.8509,1.8541,1.8556,1.8647,1.8605,1.8608,1.8633,1.8629,1.8663,1.8666,1.867,1.8737,1.8749,1.8787,1.8723,1.8908,1.8913,1.8918,1.8957,1.8966,1.8974,0,0,0,0,0,1.8458,1.8518,1.8511,1.8524,1.8593,1.8649,1.8658,1.866,1.8636,1.8665,1.8679,1.8665,1.8775,1.8744,1.8757,1.8797,1.8906,1.8912,1.8917,1.8953,1.8964,1.8974,0,0,0,0,0,0,1.849,1.8522,1.8514,1.8587,1.8615,1.8645,1.8682,1.8672,1.8709,1.8704,1.8706,1.8713,1.8778,1.8794,1.8759,1.8871,1.8837,1.8845,1.8859,1.887,1.8879,1.8874,1.8727,0,0,0,0,0,1.8506,1.8548,1.8574,1.8635,1.865,1.8664,1.8688,1.8687,1.8717,1.8729,1.8748,1.8777,1.8818,1.8845,1.8884,1.8959,1.8966,1.8992,1.9001,1.9008,1.9015,1.9056,1.9068,1.8939,1.8939,1.8939,0,0,1.8538,1.8561,1.8588,1.8642,1.8664,1.8708,1.8674,1.8722,1.8754,1.8736,1.8797,1.8812,1.8844,1.8914,1.8945,1.8929,1.9052,1.9015,1.9021,1.9024,1.9063,1.9075,1.9086,1.8943,1.8942,1.8941,0,0,1.862,1.8641,1.8695,1.8718,1.8752,1.876,1.8773,1.8804,1.8813,1.8874,1.8861,1.89,1.897,1.8994,1.9015,1.9105,1.9094,1.9118,1.9163,1.9203,1.9213,1.9222,1.9254,1.9265,1.9125,1.9125,1.9125,0,1.8656,1.8722,1.8724,1.8773,1.8797,1.8783,1.8837,1.8858,1.8903,1.892,1.8901,1.8989,1.9009,1.9084,1.9106,1.9124,1.9138,1.9114,1.9211,1.922,1.9229,1.9259,1.9271,1.9128,1.9128,1.9127,1.9127,0,1.8765,1.881,1.8849,1.8893,1.8922,1.8973,1.8982,1.9011,1.9008,1.9018,1.9081,1.9105,1.9148,1.9166,1.9164,1.924,1.9229,1.921,1.9176,1.9244,1.9272,1.9284,1.9132,1.9131,1.913,1.9129,0,0,1.8869,1.8913,1.8927,1.8947,1.8983,1.9018,1.9068,1.9111,1.9136,1.9167,1.9209,1.9268,1.9252,1.9276,1.9276,1.931,1.938,1.9287,1.9288,1.9304,1.9465,1.9479,1.9493,1.9372,1.9374,1.9376,1.9463,0,1.8954,1.9043,1.9046,1.9127,1.9169,1.9156,1.9199,1.9226,1.9237,1.9274,1.9286,1.9328,1.9302,1.9317,1.935,1.9364,1.9412,1.9358,1.9411,1.9413,1.9404,1.9508,1.9523,1.9603,1.9474,1.9476,1.9477,0,1.9065,1.9099,1.9185,1.9215,1.9233,1.9272,1.9311,1.9347,1.9376,1.9382,1.9409,1.9403,1.9454,1.9418,1.9488,1.9451,1.9472,1.9482,1.9485,1.9491,1.9449,1.9516,1.9629,1.9641,1.9495,1.9494,1.9492,0,1.9132,1.92,1.926,1.9278,1.9314,1.9342,1.9358,1.9386,1.9411,1.9445,1.9461,1.9501,1.9522,1.9552,1.9558,1.9531,1.9628,1.9592,1.9634,1.9634,1.9655,1.9654,1.9774,1.9669,1.9669,1.9669,1.9668,0,1.9227,1.9279,1.9291,1.9328,1.9387,1.9389,1.9447,1.9461,1.9486,1.9525,1.9515,1.9552,1.9557,1.9595,1.9599,1.9656,1.9666,1.9671,1.9672,1.9673,1.9672,1.9687,1.9682,1.9672,1.9671,1.967,1.967,0,1.9312,1.9322,1.9387,1.9416,1.9424,1.9466,1.9491,1.9526,1.9535,1.9585,1.9597,1.9612,1.9656,1.9664,1.9716,1.9719,1.9787,1.9782,1.9777,1.9777,1.9818,1.9814,1.9952,1.997,1.9854,1.9855,1.9856,0,1.9372,1.9412,1.9446,1.9471,1.9489,1.9531,1.9556,1.956,1.9587,1.9624,1.9655,1.9698,1.9732,1.9803,1.9818,1.9858,1.9853,1.9899,1.9859,1.9858,1.9854,1.9852,1.9856,1.9907,1.9908,1.9909,1.991,0,1.9477,1.948,1.9518,1.9557,1.9589,1.962,1.9649,1.9671,1.9678,1.9709,1.9754,1.9781,1.9834,1.9877,1.9916,1.9932,1.9922,1.9922,1.9934,1.9935,1.993,1.9933,1.9798,1.9919,1.9918,1.9917,1.9917,1.9917,1.9551,1.9587,1.9616,1.9658,1.9681,1.9709,1.9743,1.9757,1.9795,1.9838,1.9838,1.9887,1.9915,1.9967,1.9985,2.0024,2.0009,2.0026,2.003,2.0035,2.0039,1.9924,2.0031,2.003,2.003,2.003,2.003,0,1.9656,1.9674,1.9713,1.9755,1.9788,1.9776,1.9808,1.9836,1.988,1.9907,1.9941,1.9993,2.0034,2.0052,2.0093,2.012,2.0116,2.013,2.0128,2.0132,2.0049,2.0035,2.0132,2.0132,2.0132,2.0132,2.0132,2.0132,1.9714,1.9773,1.9779,1.9849,1.9866,1.9915,1.9934,1.996,1.9981,2.0039,2.0074,2.0086,2.0109,2.0151,2.0188,2.0192,2.0207,2.0224,2.0226,2.0148,2.0138,2.0128,2.0115,2.0227,2.0227,2.0305,2.0306,2.0307]},{"header":{"parameterUnit":"m.s-1","parameterCategory":1,"la1":30.2991,"la2":30.254,"lo1":-89.0895,"lo2":-89.0444,"dy":0.0017,"dx":0.0017,"nx":28,"ny":28,"refTime":"2024-02-27T09:00:00:Z","depth":0,"parameterNumber":3,"parameterNumberName":"V-component_of_WINDS"},"data":[0,0,0,0,0,0,0,0,0,0,0,0,0,0,0,0,0,0,0,0,0,0,0,0,0,0,0,0,0,0,0,0,0,0,0,0,0,0,0,0,0,0,0,0,0,0,0,0,0,0,0,0,0,0,0,0,0,0,5.8231,5.8233,0,5.8364,5.8365,5.8367,5.834,5.8337,5.8335,5.8332,5.8461,5.8466,5.8472,0,0,0,0,0,0,0,0,0,0,0,0,0,5.7948,5.7954,5.8231,5.8233,5.8235,5.8364,5.8365,5.8367,5.834,5.8337,5.8334,5.8331,5.8459,5.8465,5.8472,0,0,0,0,0,0,0,0,0,0,0,0,0,5.8075,5.7955,5.8231,5.8237,5.8239,5.8363,5.8365,5.8368,5.8341,5.8337,5.8333,5.833,5.8456,5.8465,5.8473,5.8598,0,0,5.8499,5.8503,0,0,0,0,0,0,0,0,5.8068,5.8085,5.8234,5.8237,5.8239,5.8332,5.8312,5.8445,5.8341,5.8302,5.8332,5.8328,5.842,5.8431,5.8464,5.8604,5.8609,5.85,5.8505,5.8509,5.8511,0,0,0,0,0,0,0,5.8059,5.8079,5.8283,5.8236,5.8239,5.8231,5.8245,5.8337,5.8379,5.8305,5.8303,5.832,5.8421,5.8456,5.8467,5.8611,5.85,5.8507,5.8512,5.8516,5.886,5.8864,0,0,0,0,0,0,5.8049,5.8072,5.8279,5.8287,5.8143,5.8239,5.8254,5.8305,5.8378,5.8386,5.8323,5.8318,5.8443,5.8457,5.8471,5.8623,5.8508,5.8516,5.8521,5.8856,5.8861,5.8866,0,0,0,0,0,0,5.8043,5.8068,5.8274,5.818,5.8205,5.8247,5.8305,5.831,5.8345,5.8392,5.8398,5.8351,5.8441,5.8459,5.8567,5.8627,5.852,5.8528,5.8851,5.8858,5.8863,5.8927,0,0,0,0,0,0,5.8035,5.8066,5.8115,5.8181,5.821,5.837,5.8309,5.8315,5.8361,5.8356,5.8421,5.8428,5.8439,5.8555,5.8576,5.8637,5.8535,5.8846,5.8854,5.8861,5.892,5.8934,5.8947,0,0,0,0,0,5.8025,5.8126,5.8118,5.8143,5.8273,5.8374,5.839,5.8404,5.8366,5.8415,5.8445,5.8426,5.8617,5.8566,5.8589,5.8654,5.8843,5.8852,5.8861,5.8913,5.8931,5.8947,0,0,0,0,0,0,5.8063,5.8135,5.8127,5.8252,5.8308,5.8369,5.8431,5.8422,5.8487,5.848,5.8491,5.8506,5.8616,5.8645,5.8588,5.8778,5.8724,5.8738,5.8756,5.8773,5.8787,5.8778,5.8542,0,0,0,0,0,5.8087,5.8165,5.8222,5.8327,5.8356,5.8389,5.8433,5.8439,5.8495,5.8518,5.8556,5.8609,5.8681,5.8729,5.8797,5.8923,5.8937,5.8979,5.8992,5.9003,5.9016,5.9085,5.9104,5.8896,5.8896,5.8895,0,0,5.8135,5.8184,5.8232,5.8336,5.838,5.8458,5.8409,5.8493,5.8551,5.853,5.8636,5.8665,5.8725,5.8843,5.8897,5.8871,5.9076,5.9015,5.9024,5.903,5.9096,5.9116,5.9133,5.8902,5.8901,5.89,0,0,5.8265,5.8309,5.8403,5.8448,5.8516,5.8537,5.856,5.8623,5.8643,5.8749,5.8735,5.8802,5.8927,5.8971,5.9009,5.9156,5.9141,5.9178,5.9249,5.9316,5.9333,5.9347,5.94,5.9419,5.9189,5.919,5.919,0,5.8316,5.8437,5.8451,5.8539,5.8585,5.8571,5.8665,5.8707,5.8792,5.8824,5.8794,5.895,5.8989,5.9118,5.9154,5.9185,5.921,5.9171,5.933,5.9345,5.9358,5.9409,5.9429,5.9194,5.9193,5.9193,5.9193,0,5.8496,5.858,5.8647,5.8734,5.8786,5.8876,5.8903,5.8954,5.8955,5.898,5.9088,5.9135,5.9214,5.9244,5.9245,5.9373,5.9355,5.9327,5.9273,5.9382,5.943,5.9449,5.92,5.9198,5.9197,5.9196,0,0,5.8654,5.8749,5.8773,5.8812,5.8886,5.895,5.9038,5.9118,5.9162,5.9221,5.9295,5.9401,5.9377,5.942,5.9425,5.9484,5.9598,5.9449,5.9451,5.9476,5.9742,5.9764,5.9786,5.9588,5.9592,5.9595,5.9738,0,5.8791,5.8951,5.8967,5.9109,5.9186,5.9175,5.9252,5.9304,5.9329,5.9396,5.9422,5.9497,5.9459,5.9485,5.9543,5.9572,5.9652,5.9562,5.9656,5.9659,5.9643,5.9811,5.9833,5.9966,5.9756,5.9759,5.9762,0,5.8972,5.904,5.9191,5.9256,5.9288,5.9358,5.9433,5.9497,5.9556,5.9569,5.9619,5.9617,5.9706,5.9648,5.977,5.9709,5.9748,5.9768,5.9773,5.9783,5.9718,5.9826,6.0009,6.0029,5.9791,5.9789,5.9787,0,5.9073,5.9202,5.9309,5.9343,5.942,5.947,5.9503,5.9559,5.9606,5.967,5.97,5.9773,5.9813,5.9868,5.9884,5.984,6.0006,5.9949,6.0019,6.0019,6.0056,6.0053,6.0248,6.0079,6.0079,6.0078,6.0078,0,5.9225,5.9318,5.9356,5.9423,5.9526,5.9542,5.9643,5.9674,5.9723,5.9794,5.9786,5.9852,5.9869,5.9937,5.995,6.005,6.0067,6.008,6.0082,6.0081,6.008,6.0108,6.0099,6.0084,6.0082,6.0081,6.008,0,5.9356,5.9386,5.9502,5.9567,5.9585,5.9658,5.9712,5.9775,5.9798,5.9887,5.9909,5.9945,6.0025,6.0047,6.0142,6.015,6.0268,6.0261,6.025,6.025,6.0319,6.0313,6.0539,6.057,6.038,6.0382,6.0383,0,5.9452,5.9524,5.9597,5.9645,5.9682,5.9759,5.9808,5.9826,5.9877,5.9949,6.0003,6.0083,6.0147,6.0275,6.0308,6.0381,6.0376,6.045,6.0387,6.0384,6.0378,6.0374,6.0382,6.0463,6.0465,6.0466,6.0468,0,5.9619,5.9631,5.9703,5.9781,5.9841,5.9902,5.9961,6.0,6.0025,6.0082,6.0166,6.0216,6.0315,6.0393,6.0467,6.0498,6.0487,6.0487,6.0508,6.0508,6.0499,6.0506,6.0284,6.0482,6.0481,6.048,6.0479,6.0478,5.9736,5.98,5.9862,5.9943,5.999,6.0045,6.0108,6.0141,6.0212,6.0295,6.03,6.0391,6.0446,6.0544,6.058,6.065,6.0627,6.0656,6.0664,6.0671,6.0677,6.0487,6.0662,6.0662,6.0662,6.0661,6.0661,0,5.9904,5.9944,6.0018,6.0103,6.0166,6.0153,6.0217,6.027,6.0351,6.0405,6.047,6.0566,6.0642,6.0682,6.0757,6.0805,6.0802,6.0824,6.0821,6.0829,6.0693,6.0668,6.0826,6.0826,6.0826,6.0826,6.0825,6.0825,5.9999,6.0107,6.0126,6.0256,6.0294,6.0385,6.0423,6.0474,6.0518,6.0626,6.0691,6.0717,6.0765,6.0844,6.0913,6.0922,6.095,6.0976,6.0983,6.0855,6.0838,6.0822,6.08,6.0982,6.0982,6.1113,6.1115,6.1115]}]]